Greenlee 855GX IntelliBender Electric Bender

Greenlee 855GX IntelliBender Electric Bender

Bidding is closed.
High Bid:$4,850.00
NA
Bidding Ended: Thu, May 31  10:05:22 am PT
High Bidder: buckley
Bid Increment: $50.00
Starting Bid: $5.00
Item Location: 450 Santa Anita Drive, Woodland, CA 95776
Item has been viewed 2,921 times.

Greenlee 855GX IntelliBenderTM Electric Bender  -  Manufacturer's Information

  • 1" to 2" shoe for EMT/IMC/rigid conduit
  • Main power (On-Off) switch/circuit breaker  Programmable bending selector buttons
  • LCD backlit display
  • Pendant hand controller
  • 2" roller support
  • Conduit size determination trip lever
  • Bending head pivoting detent lock
  • Storage area
  • Fork tube
  • Transport handle
  • Swivel casters
  • Roller support retainer
  • 1" roller support
  • Roller engagement handle 15. 1-1/4" roller support
  • 1-1/2" roller support
  • Shoe retainer
  • Lower pivot handle
  • Hoist lifting bar
  • Motor
  • Roller support
  • Squeeze adjuster
  • Rear wheels lock
  • Lockable Storage lid
  • Bending head pivot
  • USB port.
  • Startup CD
  • Amperage Rating : 20 AMP GFCI Protected Receptacle
  • Standard : C/US UL Listed
  • Type : Programmable
  • Voltage Rating : 120 VAC
Bid Date Bid Amount Bidder
May 31, 2018 - 10:03:22 AM $4,850.00 ibuckley
May 31, 2018 - 10:03:23 AM $4,850.00 iilaysha18
May 31, 2018 - 10:02:52 AM $4,800.00 ibuckley
May 31, 2018 - 10:02:52 AM $4,750.00 iilaysha18
May 31, 2018 - 10:02:02 AM $4,700.00 ibuckley
May 31, 2018 - 10:01:43 AM $4,650.00 iilaysha18
May 31, 2018 - 10:00:46 AM $4,600.00 ibuckley
May 31, 2018 - 10:00:31 AM $4,550.00 iilaysha18
May 31, 2018 - 9:59:25 AM $4,500.00 ibuckley
May 31, 2018 - 9:59:25 AM $4,450.00 iilaysha18
May 31, 2018 - 9:59:24 AM $4,400.00 ibuckley
May 31, 2018 - 9:59:24 AM $4,350.00 iilaysha18
May 31, 2018 - 9:59:22 AM $4,300.00 ibuckley
May 31, 2018 - 9:59:22 AM $4,250.00 iilaysha18
May 31, 2018 - 9:59:20 AM $4,200.00 ibuckley
May 31, 2018 - 9:59:20 AM $4,150.00 iilaysha18
May 31, 2018 - 9:59:17 AM $4,100.00 ibuckley
May 31, 2018 - 9:59:17 AM $4,050.00 iilaysha18
May 31, 2018 - 9:59:14 AM $4,000.00 ibuckley
May 31, 2018 - 9:59:14 AM $3,950.00 iilaysha18
May 31, 2018 - 9:58:19 AM $3,900.00 ibuckley
May 31, 2018 - 9:58:19 AM $3,850.00 iilaysha18
May 31, 2018 - 9:58:17 AM $3,800.00 ibuckley
May 31, 2018 - 9:58:17 AM $3,750.00 iilaysha18
May 31, 2018 - 9:58:15 AM $3,700.00 ibuckley
May 31, 2018 - 9:58:06 AM $3,650.00 iilaysha18
May 31, 2018 - 9:58:04 AM $3,600.00 ibuckley
May 31, 2018 - 9:58:05 AM $3,600.00 iilaysha18
May 31, 2018 - 9:58:03 AM $3,550.00 ibuckley
May 31, 2018 - 9:58:03 AM $3,500.00 iNserbin1
May 31, 2018 - 9:58:02 AM $3,450.00 ibuckley
May 31, 2018 - 9:58:02 AM $3,400.00 iilaysha18
May 31, 2018 - 9:58:00 AM $3,350.00 ibuckley
May 31, 2018 - 9:58:00 AM $3,300.00 iilaysha18
May 31, 2018 - 9:57:57 AM $3,250.00 ibuckley
May 31, 2018 - 9:57:57 AM $3,200.00 iNserbin1
May 31, 2018 - 9:57:49 AM $3,150.00 iNserbin1
May 31, 2018 - 9:57:49 AM $3,100.00 iilaysha18
May 31, 2018 - 9:57:48 AM $3,050.00 iNserbin1
May 31, 2018 - 9:57:48 AM $3,000.00 ibuckley
May 31, 2018 - 9:57:44 AM $2,900.00 ibuckley
May 31, 2018 - 9:57:42 AM $2,850.00 itmjad3697
May 31, 2018 - 9:57:37 AM $2,800.00 iNserbin1
May 31, 2018 - 9:57:38 AM $2,800.00 ibuckley
May 31, 2018 - 9:57:37 AM $2,750.00 iNserbin1
May 31, 2018 - 9:57:37 AM $2,700.00 itmjad3697
May 31, 2018 - 9:57:27 AM $2,650.00 iNserbin1
May 31, 2018 - 9:57:27 AM $2,600.00 ibuckley
May 31, 2018 - 9:57:21 AM $2,550.00 ibuckley
May 31, 2018 - 9:57:21 AM $2,500.00 iNserbin1
May 31, 2018 - 9:57:22 AM $2,500.00 itmjad3697
May 31, 2018 - 9:57:12 AM $2,450.00 iNserbin1
May 31, 2018 - 9:57:08 AM $2,400.00 ibuckley
May 31, 2018 - 9:57:09 AM $2,400.00 itmjad3697
May 31, 2018 - 9:56:51 AM $2,350.00 ibuckley
May 31, 2018 - 9:56:51 AM $2,300.00 itmjad3697
May 31, 2018 - 9:56:37 AM $2,250.00 ibuckley
May 31, 2018 - 9:56:37 AM $2,200.00 itmjad3697
May 31, 2018 - 9:55:16 AM $2,150.00 ibuckley
May 31, 2018 - 9:55:09 AM $2,100.00 iNserbin1
May 31, 2018 - 9:55:10 AM $2,100.00 ibuckley
May 31, 2018 - 9:50:15 AM $2,050.00 iNserbin1
May 31, 2018 - 8:52:05 AM $2,000.00 ibuckley
May 31, 2018 - 8:52:06 AM $2,000.00 isedjohn1000
May 31, 2018 - 8:51:59 AM $1,950.00 ibuckley
May 31, 2018 - 8:51:59 AM $1,900.00 isedjohn1000
May 31, 2018 - 8:51:54 AM $1,850.00 ibuckley
May 31, 2018 - 8:51:54 AM $1,800.00 isedjohn1000
May 31, 2018 - 8:51:49 AM $1,750.00 ibuckley
May 31, 2018 - 8:51:49 AM $1,700.00 isedjohn1000
May 31, 2018 - 6:44:32 AM $1,650.00 ibuckley
May 31, 2018 - 6:44:32 AM $1,600.00 isedjohn1000
May 30, 2018 - 7:06:57 PM $1,550.00 ibuckley
May 30, 2018 - 7:06:49 PM $1,500.00 isedjohn1000
May 30, 2018 - 7:06:50 PM $1,500.00 ibuckley
May 30, 2018 - 7:06:39 PM $1,450.00 isedjohn1000
May 30, 2018 - 7:06:39 PM $1,400.00 ibuckley
May 30, 2018 - 7:06:26 PM $1,350.00 isedjohn1000
May 30, 2018 - 7:06:26 PM $1,300.00 ibuckley
May 30, 2018 - 12:10:08 PM $1,250.00 isedjohn1000
May 30, 2018 - 12:09:53 PM $1,200.00 isjp60
May 30, 2018 - 12:09:54 PM $1,200.00 isedjohn1000
May 29, 2018 - 11:02:42 PM $1,110.00 isjp60
May 29, 2018 - 11:02:42 PM $1,060.00 isedjohn1000
May 29, 2018 - 4:27:44 PM $1,010.00 isjp60
May 29, 2018 - 2:52:33 PM $1,000.00 ibuckley
May 29, 2018 - 2:52:34 PM $1,000.00 isedjohn1000
May 29, 2018 - 2:52:24 PM $760.00 ibuckley
May 29, 2018 - 2:52:24 PM $750.00 isedjohn1000
May 29, 2018 - 1:59:30 PM $650.00 ibuckley
May 29, 2018 - 1:59:30 PM $640.00 iRoger
May 29, 2018 - 1:58:25 PM $630.00 ibuckley
May 29, 2018 - 1:58:25 PM $620.00 iRoger
May 29, 2018 - 1:58:05 PM $610.00 ibuckley
May 29, 2018 - 1:58:05 PM $600.00 iRoger
May 29, 2018 - 1:57:57 PM $590.00 ibuckley
May 29, 2018 - 1:57:57 PM $580.00 iRoger
May 29, 2018 - 1:57:40 PM $570.00 ibuckley
May 29, 2018 - 1:57:40 PM $560.00 iRoger
May 29, 2018 - 1:53:29 PM $550.00 ibuckley
May 29, 2018 - 1:53:29 PM $540.00 iRoger
May 29, 2018 - 1:51:45 PM $530.00 ibuckley
May 29, 2018 - 1:51:45 PM $520.00 iRoger
May 29, 2018 - 1:25:02 PM $510.00 ibuckley
May 29, 2018 - 1:25:02 PM $500.00 isedjohn1000
May 29, 2018 - 11:41:45 AM $260.00 isedjohn1000
May 29, 2018 - 11:41:45 AM $250.00 iRoger
May 29, 2018 - 11:40:37 AM $210.00 iRoger
May 29, 2018 - 11:40:37 AM $200.00 isedjohn1000
May 29, 2018 - 10:48:17 AM $55.00 iRoger
May 29, 2018 - 10:48:17 AM $50.00 isjp60
May 29, 2018 - 10:47:44 AM $15.00 iRoger
May 29, 2018 - 10:47:44 AM $10.00 isjp60
May 29, 2018 - 10:12:56 AM $5.00 iRoger
Click on any picture to see a larger image.